Regional Weather Roundup
Issued by NWS Upton, NY

Current Version | Previous Version | Graphics & Text | Print | Product List | Glossary Off
Versions: 1 2 3 4 5 6 7 8 9 10 11 12 13 14 15 16 17 18 19 20 21 22 23 24 25 26 27 28 29 30 31 32 33 34 35 36 37 38 39 40 41 42 43 44 45 46 47 48 49 50

000
ASUS41 KOKX 241208
RWROKX

REGIONAL WEATHER ROUNDUP
NATIONAL WEATHER SERVICE NEW YORK NY
800 AM EDT SUN MAY 24 2015

NOTE: "FAIR" INDICATES FEW OR NO CLOUDS BELOW 12,000 FEET WITH NO
SIGNIFICANT WEATHER AND/OR OBSTRUCTIONS TO VISIBILITY.

NYZ071-072-176-178-NJZ106-104-241300-
NEW YORK CITY METRO AREA


CITY           SKY/WX    TMP DP  RH WIND       PRES   REMARKS
CENTRAL PARK   SUNNY     59  43  55 MISG      30.39S
LAGUARDIA APRT MOSUNNY   61  41  47 SW10      30.36R
KENNEDY INTL   MOSUNNY   61  45  55 W14       30.38S
NEWARK/LIBERTY MOSUNNY   58  45  62 SW9       30.37S
BRNX BOT. GARD   N/A     59  41  51 SE6       30.37F
TETERBORO      SUNNY     57  42  57 S6        30.36R
$$

NYZ177-179-078>081-241300-
LONG ISLAND NEW YORK

CITY           SKY/WX    TMP DP  RH WIND       PRES   REMARKS
FARMINGDALE    SUNNY     60  48  64 W8        30.37R
ISLIP          MOSUNNY   61  47  59 SW9       30.35R
SHIRLEY        SUNNY     61  48  62 W9        30.36S
WESTHAMPTON    SUNNY     60  51  72 SW9       30.36S
MONTAUK POINT    N/A     59  49  69 SW9       30.35S
$$

NYZ052-065-067-241300-
HUDSON VALLEY

CITY           SKY/WX    TMP DP  RH WIND       PRES   REMARKS
WHITE PLAINS   SUNNY     57  40  52 CALM      30.35R
NEWBURGH       SUNNY     55  39  54 W8        30.35R
MONTGOMERY     SUNNY     54  42  64 SW7       30.35R
POUGHKEEPSIE   SUNNY     58  37  45 SW12      30.33R
ALBANY         MOSUNNY   54  37  52 S5        30.31R
$$

NJZ001-105-106-008-010-013-015-019>022-104-241300-
NEW JERSEY

CITY           SKY/WX    TMP DP  RH WIND       PRES   REMARKS
NEWARK/LIBERTY MOSUNNY   58  45  62 SW9       30.37S
TETERBORO      SUNNY     57  42  57 S6        30.36R
CALDWELL       SUNNY     56  38  50 CALM      30.37R
MORRISTOWN     MOSUNNY   57  43  58 CALM      30.38S
SOMERVILLE     SUNNY     51  40  65 CALM      30.37S
SUSSEX         SUNNY     52  40  63 S5        30.37S
ANDOVER          N/A     54  44  69 CALM      30.37S
TRENTON        SUNNY     56  47  71 SW6       30.38S
MILLVILLE      SUNNY     61  56  83 VRB5      30.41R
ATLANTIC CITY  SUNNY     59  51  75 SW8       30.41R
WRIGHTSTOWN    SUNNY     57  53  87 W7        30.37S
TOMS RIVER     SUNNY    N/A N/A N/A W10       30.39S
BELMAR         SUNNY     57  46  67 W7        30.39R
$$

PAZ047>061-062-071-241300-
EASTERN PENNSYLVANIA

CITY           SKY/WX    TMP DP  RH WIND       PRES   REMARKS
PHILADELPHIA   MOSUNNY   59  51  75 SW9       30.40S
ALLENTOWN      SUNNY     54  41  61 CALM      30.38R
SCRANTON       SUNNY     51  38  60 CALM      30.37R
$$

CTZ002-004>006-009-010-012-RIZ004-006-007-MAZ004-011-015-241300-
SOUTHERN NEW ENGLAND
 IN CT

CITY           SKY/WX    TMP DP  RH WIND       PRES   REMARKS
BRADLEY INTL   MOSUNNY   56  43  61 S6        30.31R
HARTFORD       SUNNY     57  42  57 S7        30.32S
DANBURY        SUNNY     57  37  47 W10       30.35R
WTRBRY/OXFORD  SUNNY     54  39  58 SW5       30.36R
BRIDGEPORT     SUNNY     56  47  71 SW9       30.35R
MERIDEN        SUNNY     57  42  57 S7        30.33R
NEW HAVEN      SUNNY     56  47  71 SW8       30.34S
CHESTER        FAIR      55  43  62 W8        30.34R
GROTON         SUNNY     56  49  77 SW9       30.34R
WILLIMANTIC    SUNNY     50  43  77 CALM      30.33S

 IN RI

CITY           SKY/WX    TMP DP  RH WIND       PRES   REMARKS
PROVIDENCE     MOSUNNY   61  42  49 W8        30.31S
BLOCK ISLAND   SUNNY     55  48  76 SW15      30.35R
WESTERLY       SUNNY     57  48  72 SW7G16    30.34R

 IN MA

CITY           SKY/WX    TMP DP  RH WIND       PRES   REMARKS
BOSTON         MOSUNNY   60  37  42 SW14      30.26S
WORCESTER      SUNNY     58  33  39 W16       30.28S
WESTFIELD      SUNNY     50  41  71 SW7       30.31R
PROVINCETOWN   PTSUNNY   57  46  67 SW14      30.28S
NANTUCKET      SUNNY     57  51  80 SW18      30.34R
$$

ANZ330-335-338-340-345-350-353-355-241300-
COASTAL MARINE OBSERVATIONS


STATION/POSITION TIME  SKY/WX   TEMP    WIND        PRES    VSBY  WAVE
                                AIR SEA DIR/SP/G                  HT/PER
                 (UTC)          (F)     (DEG/KT/KT) (MB)    (MI)  (FT/S)
NY HARB ENTRANCE 1150            55 54  240/ 12/ 14 1028.2          2/ 5
4S FIRE IS       1103               53                N/A           3/ 5
20S FIRE ISLAND  1150            56 55  230/ 12/ 14 1028.6          2/ 4
GREAT SOUTH BAY  1100            58 62  260/ 14/ 16   N/A
23SW MTP         1150            54 52  240/ 14/ 17 1027.7          3/ 5
HUDSON CANYON    NOT AVBL
KINGS POINT      1100            56 53  210/  6/  7 1027.4
CENTRAL LI SOUND 1130            55 51  240/ 14/ 16   N/A
EASTERN LI SOUND 1100            53     240/  4/  6   N/A
ROBBINS REEF     1100            55     250/  8/ 11 1027.2
$$


>>>>>>>>>>>>>>>>>>>>>>>>>>>> KEY <<<<<<<<<<<<<<<<<<<<<<<<<<<
>                                                          <
>     SKY/WX - SKY CONDITION/PRESENT WEATHER               <
>     TMP    - TEMPERATURE IN FAHRENHEIT                   <
>     DP     - DEWPOINT IN FAHRENHEIT                      <
>     RH     - RELATIVE HUMIDITY IN PERCENT                <
>     WIND   - DIRECTION AND SPEED IN MPH                  <
>     PRES   - MEAN SEA LEVEL PRESSURE IN INCHES OF HG     <
>     WCI    - WIND CHILL INDEX                            <
>     VSB    - VISIBILITY IN MILES                         <
>     HX     - HEAT INDEX                                  <
>     TC     - TEMPERATURE IN CELSIUS                      <
>     VRB    - VARIABLE WIND DIRECTION                     <
>                                                          <
>>>>>>>>>>>>>>>>>>>>>>>>>>>> KEY <<<<<<<<<<<<<<<<<<<<<<<<<<<





USA.gov is the U.S. government's official web portal to all federal, state and local government web resources and services.